Regional Weather Roundup
Issued by NWS State College, PA

Home | Current Version | Previous Version | Graphics & Text | Print | Product List | Glossary Off
Versions: 1 2 3 4 5 6 7 8 9 10 11 12 13 14 15 16 17 18 19 20 21 22 23 24 25 26 27 28 29 30 31 32 33 34 35 36 37 38 39 40 41 42 43 44 45 46 47 48 49 50

000
ASUS41 KCTP 212210
RWRCTP

REGIONAL WEATHER ROUNDUP
NATIONAL WEATHER SERVICE STATE COLLEGE PA
600 PM EDT SUN MAY 21 2017

Note: "fair" indicates few or no clouds below 12,000 feet with no
significant weather and/or obstructions to visibility.

* = STATION THAT DOES NOT REPORT PRECIPITATION /E.G. RAIN...SNOW...ETC/
    THUNDER OR FOG.

PAZ002>004-007>009-013>016-020>023-029>032-212300-
WESTERN PENNSYLVANIA

CITY           SKY/WX    TMP DP  RH WIND       PRES   REMARKS
ERIE           CLOUDY    65  61  87 SE14      29.96F
MEADVILLE      HVY RAIN  63  63 100 VRB3      30.00S FOG
FRANKLIN*      CLOUDY    61  57  88 SE8       30.04F
NEW CASTLE     CLOUDY    67  66  97 VRB3      30.02S
BEAVER COUNTY  NOT AVBL
BUTLER*        CLOUDY    66  64  94 S7        30.04S
PITTSBURGH INT CLOUDY    68  66  93 S8        30.04S
PITTSBURGH     LGT RAIN  67  63  87 S10       30.05S
INDIANA*       CLOUDY    64  55  72 S9G16     30.11S
LATROBE        LGT RAIN  66  59  77 S15       30.08S
WASHINGTON CO* CLOUDY    66  63  88 SW9       30.08S
$$

PAZ004>006-010>012-017>019-024>028-033>037-041-042-045-046-049>053-212300-
CENTRAL PENNSYLVANIA

CITY           SKY/WX    TMP DP  RH WIND       PRES   REMARKS
BRADFORD       RAIN      54  53  97 SE7       30.10F FOG
DUBOIS         CLOUDY    58  47  66 SE9       30.08F
CLEARFIELD     PTSUNNY   61  43  51 VRB6      30.14F
JOHNSTOWN      CLOUDY    58  49  72 SE8G17    30.14S
ALTOONA        CLOUDY    61  42  49 S10G20    30.17S
STATE COLLEGE  CLOUDY    59  39  47 S7        30.17F
WILLIAMSPORT   CLOUDY    63  38  39 VRB5      30.17F
SELINSGROVE    CLOUDY    63  41  44 S5        30.20F
FT INDIANTOWN  NOT AVBL
CAPITAL CITY   CLOUDY    66  42  41 SE8       30.20F
HARRISBURG     CLOUDY    65  45  48 SE12      30.20F
YORK           CLOUDY    63  45  51 S6        30.21F
$$

PAZ038>040-043-044-047-048-054-055-060>062-067>071-212300-
EASTERN PENNSYLVANIA

CITY           SKY/WX    TMP DP  RH WIND       PRES   REMARKS
SCRANTON       CLOUDY    66  39  37 VRB6      30.19F
MOUNT POCONO   CLOUDY    60  37  42 S9G21     30.23F
ALLENTOWN      CLOUDY    69  38  32 S12       30.23S
QUAKERTOWN*    CLOUDY    66  37  34 SE9G16    30.25R
READING        CLOUDY    68  46  45 S8        30.21F
LANCASTER      CLOUDY    66  43  43 S13       30.23S
COATESVILLE    CLOUDY    63  43  48 S8        30.25F
POTTSTOWN      CLOUDY    67  38  34 VRB3      30.24S
BLUE BELL      CLOUDY    64  34  32 SE8       30.26R
DOYLESTOWN     CLOUDY    66  37  34 VRB6      30.25S
WILLOW GROVE   NOT AVBL
NORTH PHILA    PTSUNNY   67  39  35 SE10G20   30.27F
PHILADELPHIA   CLOUDY    67  40  37 SE9       30.25S
$$




USA.gov is the U.S. government's official web portal to all federal, state and local government web resources and services.